Location: B?ogocice
(50.2413°N, 20.2361°E)
Time: 21:34:04
(UTC+00:00)

Cosmos 1461 - Visible Passes

Search period start: 19 September 2024 00:00
Search period end: 29 September 2024 00:00
Orbit: 492 x 568 km, 65.0° (Epoch: 19 September)

Date Brightness Start Highest point End Pass type
(mag) Time Alt. Az. Time Alt. Az. Time Alt. Az.
19 Sep 5.7 00:40:53 12° N 00:40:53 12° N 00:41:40 10° N visible
20 Sep 5.8 00:30:09 11° N 00:30:09 11° N 00:30:33 10° N visible
20 Sep 5.2 03:45:15 10° NNW 03:48:03 19° NNE 03:50:53 10° ENE visible
21 Sep 5.2 03:34:08 10° NNW 03:37:03 20° NNE 03:39:59 10° E visible
22 Sep 5.1 03:23:00 10° NNW 03:26:01 21° NNE 03:29:04 10° E visible
23 Sep 5.0 03:11:50 10° NNW 03:14:57 23° NNE 03:18:05 10° E visible
24 Sep 5.8 01:24:18 10° N 01:24:38 10° NNE 01:24:57 10° NNE visible
24 Sep 4.9 03:00:39 10° NNW 03:03:51 24° NE 03:07:05 10° E visible
25 Sep 5.8 01:12:51 10° N 01:13:33 10° NNE 01:14:15 10° NNE visible
25 Sep 4.8 02:49:26 10° NNW 02:52:43 26° NE 02:56:04 10° E visible
26 Sep 5.8 01:01:29 10° N 01:02:26 11° NNE 01:03:24 10° NNE visible
26 Sep 4.7 02:38:12 10° NNW 02:41:34 28° NE 02:44:59 10° E visible
27 Sep 5.8 00:50:44 11° N 00:51:18 11° NNE 00:52:28 10° NNE visible
27 Sep 4.5 02:26:56 10° NNW 02:30:23 30° NE 02:33:53 10° ESE visible
28 Sep 5.9 00:40:24 11° NNE 00:40:24 11° NNE 00:41:30 10° NE visible
28 Sep 4.4 02:15:43 10° NNW 02:19:10 33° NE 02:22:43 10° ESE visible
28 Sep 3.3 03:53:32 10° NW 03:57:08 37° WSW 04:00:46 10° S visible
